sat.trackr.live / text

‹ back to catalog

STARLINK-5258

NORAD 54195 · 2022-141AQ

PAYLOAD ACTIVE UNKNOWN

§ Identity

Operator
Country
US
Launch date
2022-10-28
Launch site
AFWTR
Launch vehicle
Mass (kg)
RCS (m²)

Purposes: comms

External: N2YO · Heavens-Above · Gunter

§ Orbital elements

Epoch: 2026-05-25T01:03:17.596224Z

Period
95.44 min
Inclination
53.2144°
Eccentricity
0.0001470
Mean motion
15.08841338 rev/d
Perigee alt
538.7 km
Apogee alt
540.8 km
Semi-major
6,917.9 km
B*
2.6159e-5
RAAN
11.4324°
Arg perigee
77.3561°
Mean anomaly
282.7596°
Rev number
19,752

§ Raw data

STARLINK-52581 54195U 22141AQ  26145.04395366  .00000128  00000+0  26159-4 0  99952 54195  53.2144  11.4324 0001470  77.3561 282.7596 15.08841338197525

JSON: /api/v1/satellites/54195 · /tle

For live sub-satellite position, see the globe view (requires WebGL).

§ Visibility from observer

Set your observer location to see the next 7 days of passes ≥ 10°. The values pass through the URL so the page stays shareable.

No JS? Fill the form by hand. The geolocation button needs JavaScript.